Wind_Speed
46 45 45 45 46 45 45 45 45 45 44 43 42 41 41 41 41 41 42 43 42 42 42 43 43 43 44 44 44 44 44 43 43 42 41 41 41 40
46 46 46 46 45 44 43 43 43 43 43 42 42 41 40 40 40 41 41 41 41 42 43 44 43 43 43 43 42 43 43 43 42 41 40 40 40 39
47 47 46 44 44 43 43 43 42 42 41 40 40 40 40 40 40 40 42 41 41 42 43 43 42 42 42 42 42 42 42 42 41 39 38 39 38 37
44 43 43 43 43 42 42 43 42 40 39 38 38 38 39 40 40 40 40 40 40 41 41 42 42 41 41 41 41 41 41 40 39 38 38 37 37 36
41 41 41 41 41 41 41 41 41 40 39 38 38 38 39 39 38 38 38 38 39 39 40 40 40 40 39 40 40 40 40 39 39 38 37 35 35 36
39 40 39 40 40 40 40 40 40 39 38 38 38 37 37 37 37 36 36 37 38 38 37 37 37 37 37 37 37 38 38 37 36 35 35 35 35 35
38 38 38 38 38 38 38 38 38 38 37 37 36 35 35 35 36 36 35 35 36 36 36 35 35 35 34 35 35 35 35 34 33 33 33 33 33 33
37 37 37 36 37 36 36 36 36 35 35 34 34 34 34 34 35 35 35 34 33 34 34 33 33 32 32 32 32 32 32 31 31 30 30 31 30 29
36 35 36 36 35 35 34 34 34 34 34 34 33 33 33 33 34 35 35 33 32 32 31 30 31 31 31 30 29 29 29 29 29 29 29 28 26 25
35 34 34 35 35 34 33 33 33 33 34 34 34 33 33 32 33 34 32 31 30 29 29 29 29 28 27 27 27 27 27 27 27 26 26 25 24 24
33 32 33 33 34 35 34 33 33 33 33 33 32 32 32 32 32 32 30 28 27 27 27 26 26 25 26 25 25 25 25 25 24 24 24 24 23 23
31 32 32 32 33 34 34 33 33 33 31 30 30 30 30 30 31 30 28 28 27 25 24 24 24 25 25 24 24 24 24 23 23 23 23 23 22 23
32 32 31 31 31 32 33 33 32 31 31 31 30 29 29 29 30 29 27 27 25 24 24 24 24 24 24 24 23 23 23 22 22 23 22 23 23 23
31 32 32 31 31 31 31 31 31 30 30 30 29 28 28 28 28 26 24 24 24 24 24 24 24 23 23 22 21 22 22 22 22 22 22 23 23 23
30 31 31 31 30 29 30 30 31 30 29 28 27 27 26 25 25 24 22 22 22 22 22 22 21 21 21 20 20 21 21 21 21 21 21 22 22 22
29 29 29 30 30 29 29 29 29 29 27 26 25 24 23 23 22 21 20 20 20 21 21 20 20 20 20 20 21 21 20 20 20 20 21 21 21 21
28 28 28 27 27 27 26 26 26 26 25 24 24 22 21 20 19 19 18 19 18 18 19 19 19 19 19 20 20 20 19 20 20 20 20 20 20 20
27 26 26 25 25 25 25 24 24 23 23 22 21 20 19 19 18 17 17 17 17 17 17 17 17 17 17 18 19 19 19 19 19 19 19 18 18 18
25 25 24 23 24 24 23 23 22 21 20 19 18 18 18 17 16 15 15 15 15 15 15 15 15 15 15 15 16 17 17 18 17 17 16 16 16 17
24 23 23 23 22 22 21 20 19 19 18 18 17 16 16 15 14 13 13 13 13 14 14 14 14 14 13 14 15 16 16 16 15 15 14 14 15 16
21 20 20 20 20 20 19 18 18 17 17 16 16 15 15 14 13 12 12 12 12 12 13 13 13 13 13 14 14 14 13 13 13 13 13 13 14 14
20 19 19 19 18 18 17 17 17 16 16 15 15 15 14 13 12 11 11 11 11 11 11 12 12 12 12 12 12 12 11 10 11 12 12 13 14 14
18 17 17 17 16 17 17 16 16 16 15 15 14 14 13 13 12 11 10 10 10 10 10 10 11 11 11 10 10 9 8 9 10 11 12 13 14 15
Wind_Direction
274 275 277 279 280 281 281 281 281 281 280 281 281 282 283 285 285 288 289 289 289 289 290 292 293 293 294 295 295 295 295 296 295 296 297 297 297 298
274 274 276 277 279 280 280 281 281 280 281 281 280 281 284 286 285 286 289 290 290 290 291 292 292 293 294 295 295 295 296 295 295 296 296 296 297 296
274 274 274 275 277 278 278 279 279 280 281 281 281 282 284 286 286 286 287 288 289 290 291 292 292 294 294 296 295 295 295 294 294 295 295 296 297 296
273 273 272 273 274 275 276 277 277 278 279 279 281 282 283 286 287 288 288 287 288 290 292 293 293 294 295 295 295 295 295 294 293 295 296 296 296 294
273 272 272 272 271 272 273 275 275 276 278 278 280 282 284 285 286 288 289 288 289 292 293 293 294 295 296 296 296 295 295 295 295 296 296 296 296 295
273 272 271 270 269 271 272 273 274 275 277 279 281 282 284 286 286 288 288 289 291 293 294 296 297 297 297 297 297 297 297 297 297 298 297 296 296 296
272 271 269 269 268 269 271 272 272 274 277 278 280 282 284 286 287 288 288 289 292 294 295 296 297 297 297 298 299 300 299 298 298 299 300 299 299 299
272 270 268 268 268 269 270 270 271 274 275 278 280 282 284 286 287 287 288 290 292 294 296 296 297 297 299 299 301 302 302 300 300 301 302 303 303 303
270 270 268 268 269 269 269 269 271 273 275 278 280 282 283 285 286 287 289 291 293 294 296 297 299 299 299 300 302 304 303 303 304 305 308 308 306 306
270 271 270 268 267 268 269 269 270 272 275 277 279 281 283 284 285 287 288 291 292 294 297 299 300 300 301 302 304 305 305 307 309 310 311 309 308 308
269 270 271 269 267 267 268 269 271 273 275 277 280 281 283 284 285 287 287 287 289 293 296 299 301 301 303 304 306 308 308 309 310 312 312 311 310 309
268 268 269 269 269 268 269 270 271 272 273 274 278 279 281 283 285 285 284 285 289 293 295 297 299 301 303 305 307 308 309 311 312 312 312 312 312 313
267 267 268 270 271 270 269 271 271 272 272 273 275 277 279 282 283 284 283 287 290 292 295 296 299 303 306 308 307 308 309 311 312 313 313 313 314 316
269 269 269 270 271 270 268 269 270 271 272 273 275 277 280 281 282 282 284 288 291 293 296 298 302 306 309 311 309 309 310 311 312 313 313 314 314 315
270 270 270 269 271 270 270 269 269 270 271 272 275 278 278 279 280 280 283 287 291 294 299 301 303 306 308 311 312 312 313 315 315 315 314 314 315 317
269 270 271 271 270 270 270 270 270 271 272 273 275 277 277 277 278 277 279 285 290 294 298 301 301 305 308 311 313 315 317 318 321 321 320 318 316 317
269 271 271 270 268 269 270 271 270 271 270 272 273 274 275 276 275 274 277 284 289 292 296 301 304 307 310 312 315 317 319 320 321 322 323 323 323 323
269 269 270 267 266 267 269 269 268 268 268 270 270 271 272 273 273 272 275 280 284 289 294 298 303 307 310 315 318 320 321 322 322 323 325 328 330 331
267 268 268 265 264 265 267 267 264 263 264 265 267 269 270 272 271 271 273 276 281 287 291 296 300 306 311 318 322 326 328 328 328 330 332 336 338 340
266 265 265 263 263 262 263 262 258 259 262 262 262 265 267 269 270 272 273 274 280 287 293 298 302 308 314 320 324 326 328 332 335 338 339 341 342 344
263 263 264 262 261 260 257 255 253 255 259 257 255 258 263 265 269 272 271 272 279 287 294 299 303 308 313 318 325 330 332 337 343 347 347 348 348 348
258 259 261 261 259 255 252 251 249 250 253 253 252 255 257 260 267 268 268 273 280 286 294 300 304 306 312 320 328 333 335 342 350 353 355 355 356 356
254 255 257 256 251 251 251 249 248 246 248 248 246 249 252 255 260 263 265 271 279 286 293 301 304 307 314 323 330 334 340 347 353 358 358 358 358 359
Height
5670 5670 5670 5669 5667 5665 5663 5662 5661 5659 5660 5659 5657 5656 5654 5651 5649 5646 5644 5641 5639 5636 5633 5630 5627 5624 5620 5616 5613 5609 5605 5601 5597 5593 5590 5586 5582 5578
5658 5658 5658 5657 5655 5654 5653 5651 5650 5648 5648 5648 5647 5645 5643 5641 5639 5636 5634 5631 5629 5626 5623 5620 5616 5613 5609 5605 5601 5598 5594 5590 5586 5582 5578 5575 5571 5567
5645 5645 5645 5644 5644 5643 5642 5641 5640 5638 5637 5637 5636 5635 5633 5631 5628 5626 5624 5621 5618 5616 5613 5609 5605 5601 5598 5594 5590 5586 5582 5579 5575 5571 5567 5564 5561 5557
5633 5633 5633 5633 5633 5632 5631 5630 5629 5628 5627 5627 5626 5625 5623 5621 5619 5616 5614 5612 5609 5605 5602 5598 5595 5591 5587 5583 5579 5575 5571 5567 5564 5560 5557 5554 5550 5547
5621 5621 5621 5621 5621 5621 5620 5619 5619 5618 5618 5617 5616 5615 5613 5611 5610 5607 5604 5602 5598 5595 5592 5588 5584 5580 5576 5573 5569 5565 5561 5557 5554 5550 5547 5543 5540 5537
5609 5609 5609 5609 5610 5610 5610 5609 5609 5608 5608 5607 5606 5605 5604 5602 5600 5598 5595 5592 5589 5586 5582 5578 5575 5571 5567 5563 5560 5556 5551 5548 5544 5541 5537 5534 5531 5527
5598 5598 5598 5598 5598 5599 5599 5599 5599 5599 5598 5598 5597 5596 5595 5593 5591 5589 5586 5583 5580 5577 5573 5570 5566 5562 5558 5554 5550 5546 5542 5539 5536 5532 5529 5525 5522 5519
5588 5588 5588 5588 5588 5588 5589 5589 5589 5589 5589 5588 5588 5587 5586 5584 5582 5579 5577 5575 5573 5569 5565 5562 5557 5554 5550 5546 5543 5539 5535 5531 5528 5525 5521 5518 5514 5511
5578 5578 5578 5578 5578 5579 5579 5579 5580 5580 5580 5579 5578 5578 5577 5576 5573 5571 5568 5565 5563 5560 5557 5554 5550 5546 5543 5539 5535 5532 5528 5525 5522 5518 5515 5511 5507 5504
5568 5568 5568 5568 5569 5569 5570 5570 5570 5571 5570 5570 5569 5568 5567 5566 5564 5563 5560 5558 5555 5552 5549 5547 5543 5540 5536 5533 5529 5525 5522 5519 5516 5512 5508 5505 5502 5499
5558 5558 5558 5559 5560 5560 5561 5561 5561 5561 5561 5560 5560 5559 5558 5557 5555 5554 5552 5550 5548 5546 5543 5540 5537 5534 5531 5527 5524 5520 5516 5513 5510 5507 5503 5499 5496 5493
5548 5549 5549 5550 5550 5550 5551 5551 5552 5552 5552 5551 5551 5550 5549 5548 5547 5546 5544 5543 5541 5539 5537 5534 5531 5528 5526 5522 5519 5515 5512 5508 5505 5501 5498 5494 5491 5487
5539 5540 5540 5540 5541 5541 5541 5542 5543 5543 5543 5542 5542 5542 5541 5540 5539 5538 5537 5536 5534 5532 5530 5528 5525 5522 5520 5517 5513 5510 5507 5504 5500 5496 5493 5489 5486 5482
5530 5530 5531 5531 5531 5531 5532 5533 5533 5533 5533 5534 5533 5533 5533 5532 5532 5530 5529 5529 5528 5526 5524 5522 5520 5517 5515 5511 5508 5505 5502 5499 5495 5492 5488 5485 5481 5477
5521 5521 5522 5522 5522 5522 5522 5523 5523 5524 5524 5525 5525 5525 5525 5525 5524 5524 5523 5523 5522 5520 5519 5517 5514 5512 5510 5507 5503 5500 5498 5494 5491 5487 5483 5480 5476 5472
5512 5512 5512 5513 5513 5513 5514 5514 5515 5516 5516 5517 5518 5518 5518 5518 5518 5518 5518 5517 5517 5516 5514 5512 5510 5508 5505 5503 5499 5496 5493 5490 5487 5483 5479 5475 5471 5467
5503 5503 5503 5504 5504 5505 5506 5507 5507 5508 5509 5510 5511 5511 5512 5512 5512 5512 5512 5512 5512 5511 5509 5508 5506 5503 5501 5499 5496 5493 5489 5486 5483 5479 5475 5472 5467 5463
5494 5495 5495 5496 5497 5498 5499 5500 5500 5501 5502 5503 5504 5505 5506 5507 5507 5507 5507 5507 5507 5506 5505 5504 5502 5500 5498 5495 5493 5489 5486 5483 5479 5476 5472 5469 5465 5461
5486 5487 5488 5489 5490 5491 5492 5493 5494 5495 5496 5498 5499 5500 5501 5501 5501 5501 5502 5502 5502 5502 5501 5500 5499 5497 5495 5493 5490 5486 5483 5480 5476 5473 5469 5466 5462 5459
5479 5480 5481 5482 5483 5484 5485 5486 5488 5489 5491 5493 5494 5495 5496 5496 5497 5497 5498 5498 5498 5498 5497 5496 5495 5494 5492 5490 5487 5484 5480 5477 5474 5471 5468 5464 5461 5458
5472 5473 5474 5476 5477 5478 5479 5481 5482 5484 5486 5488 5489 5491 5492 5492 5493 5493 5494 5494 5494 5494 5494 5493 5492 5490 5489 5487 5485 5482 5479 5475 5473 5470 5467 5464 5461 5458
5466 5467 5469 5470 5471 5472 5474 5476 5477 5479 5481 5483 5485 5486 5487 5488 5489 5490 5490 5491 5491 5491 5491 5490 5488 5487 5486 5484 5482 5480 5478 5475 5472 5469 5466 5464 5461 5457
5460 5462 5463 5465 5466 5467 5469 5471 5473 5474 5476 5478 5480 5482 5483 5484 5485 5486 5487 5487 5487 5487 5487 5486 5486 5484 5483 5482 5480 5478 5476 5475 5472 5469 5466 5463 5460 5457